Weather History for KINK - March, 2014

Change the Weather History Date:

Sunday, March 30, 2014

  Actual Average Record
Temperature  
Mean Temperature 71 °F -  
Max Temperature 88 °F 73 °F 95 °F (2008)
Min Temperature 55 °F 42 °F 18 °F (1987)
Cooling Degree Days 6    
Growing Degree Days 21 (Base 50)    
Moisture  
Dew Point 37 °F    
Average Humidity 31    
Maximum Humidity 47    
Minimum Humidity 14    
Precipitation  
Precipitation 0.00 in - - ()
Sea Level Pressure  
Sea Level Pressure 29.84 in    
Wind  
Wind Speed 15 mph (SE)    
Max Wind Speed 29 mph    
Max Gust Speed 39 mph    
Visibility 10 miles    
Events      
Averages and records for this station are not official NWS values.
T = Trace of Precipitation, MM = Missing Value Source: NWS Daily Summary

Daily Weather History Graph

Daily Weather History Graph

Search for Another Location

Airport or City:

Trip Planner

Search our weather history database for the weather conditions in past years. The results will help you decide how hot, cold, wet, or windy it might be!

Date:

Astronomy

Mar. 30, 2014 Rise Set
Actual Time 7:43 AM CDT 8:11 PM CDT
Civil Twilight 7:19 AM CDT 8:35 PM CDT
Nautical Twilight 6:50 AM CDT 9:04 PM CDT
Astronomical Twilight 6:21 AM CDT 9:33 PM CDT
Moon 7:31 AM CDT (3/30) 8:24 PM CDT (3/30)
Length of Visible Light 13h 16m
Length of Day
12h 27m
Waning Crescent, 0% of the Moon is Illuminated
Mar 30
Waning Crescent
Mar 30
New
Apr 7
First Quarter
Apr 15
Full
Apr 22
Last Quarter

Hourly Weather History & Observations

Time (CDT) Temp. Dew Point Humidity Pressure Visibility Wind Dir Wind Speed Gust Speed Precip Events Conditions
12:53 AM 59.0 °F 30.0 °F 33% 30.02 in 10.0 mi SE 8.1 mph - N/A   Clear
1:53 AM 57.9 °F 30.9 °F 36% 30.02 in 10.0 mi ESE 9.2 mph - N/A   Clear
2:53 AM 59.0 °F 32.0 °F 36% 30.00 in 10.0 mi SE 11.5 mph - N/A   Clear
3:53 AM 57.0 °F 33.1 °F 40% 29.98 in 10.0 mi SE 10.4 mph - N/A   Clear
4:53 AM 57.0 °F 34.0 °F 42% 29.95 in 10.0 mi SE 15.0 mph - N/A   Clear
5:53 AM 55.9 °F 34.0 °F 44% 29.95 in 10.0 mi SE 15.0 mph - N/A   Clear
6:53 AM 55.9 °F 34.0 °F 44% 29.95 in 10.0 mi SE 15.0 mph - N/A   Clear
7:53 AM 55.9 °F 35.1 °F 45% 29.95 in 10.0 mi SE 16.1 mph 25.3 mph N/A   Clear
8:53 AM 57.0 °F 37.0 °F 47% 29.96 in 10.0 mi SE 15.0 mph - N/A   Clear
9:53 AM 64.0 °F 37.9 °F 38% 29.96 in 10.0 mi SSE 15.0 mph - N/A   Clear
10:53 AM 68.0 °F 39.0 °F 35% 29.94 in 10.0 mi SSE 21.9 mph 26.5 mph N/A   Clear
11:53 AM 73.9 °F 39.0 °F 28% 29.91 in 10.0 mi SSE 19.6 mph 28.8 mph N/A   Clear
12:53 PM 79.0 °F 37.9 °F 23% 29.87 in 10.0 mi SSE 18.4 mph 27.6 mph N/A   Clear
1:53 PM 82.9 °F 28.9 °F 14% 29.82 in 10.0 mi South 15.0 mph 26.5 mph N/A   Clear
2:53 PM 84.0 °F 39.0 °F 20% 29.77 in 10.0 mi SSE 18.4 mph 27.6 mph N/A   Clear
3:53 PM 87.1 °F 39.0 °F 18% 29.71 in 10.0 mi SSE 20.7 mph 27.6 mph N/A   Clear
4:53 PM 84.9 °F 37.9 °F 19% 29.67 in 10.0 mi SE 24.2 mph 36.8 mph N/A   Clear
5:53 PM 84.9 °F 37.9 °F 19% 29.65 in 10.0 mi SE 28.8 mph 38.0 mph N/A   Partly Cloudy
6:53 PM 82.9 °F 37.9 °F 20% 29.64 in 10.0 mi SE 27.6 mph 39.1 mph N/A   Clear
7:53 PM 80.1 °F 39.0 °F 23% 29.65 in 10.0 mi SSE 25.3 mph 35.7 mph N/A   Clear
8:53 PM 75.9 °F 41.0 °F 29% 29.67 in 10.0 mi SSE 23.0 mph 31.1 mph N/A   Clear
9:53 PM 73.9 °F 37.9 °F 27% 29.69 in 10.0 mi SSE 18.4 mph 31.1 mph N/A   Clear
10:53 PM 71.1 °F 42.1 °F 35% 29.70 in 10.0 mi SSE 17.3 mph 28.8 mph N/A   Clear
11:53 PM 70.0 °F 44.1 °F 39% 29.70 in 10.0 mi SSE 16.1 mph - N/A   Clear